TimeEST,TemperatureF,Dew PointF,Humidity,Sea Level PressureIn,VisibilityMPH,Wind Direction,Wind SpeedMPH,Gust SpeedMPH,PrecipitationIn,Events,Conditions,WindDirDegrees,DateUTC
12:15 AM,35.6,33.8,93,30.10,4.0,NW,3.5,-,N/A,Snow,Light Snow,310,2013-01-18 05:15:00
12:35 AM,35.6,33.8,93,30.13,7.0,WNW,3.5,-,0.01,Snow,Light Snow,300,2013-01-18 05:35:00
12:55 AM,35.6,33.8,93,30.14,10.0,Calm,Calm,-,0.02,Rain,Light Rain,0,2013-01-18 05:55:00
1:15 AM,35.6,33.8,93,30.15,10.0,Calm,Calm,-,0.01,,Mostly Cloudy,0,2013-01-18 06:15:00
1:35 AM,35.6,33.8,93,30.14,10.0,Calm,Calm,-,0.01,Snow,Light Snow,0,2013-01-18 06:35:00
1:55 AM,35.6,33.8,93,30.16,7.0,West,4.6,-,0.02,,Overcast,280,2013-01-18 06:55:00
2:15 AM,35.6,33.8,93,30.16,5.0,WNW,6.9,-,N/A,,Overcast,290,2013-01-18 07:15:00
2:35 AM,35.6,33.8,93,30.19,4.0,West,6.9,-,0.01,,Overcast,270,2013-01-18 07:35:00
2:55 AM,35.6,33.8,93,30.19,4.0,WNW,6.9,-,0.02,,Overcast,290,2013-01-18 07:55:00
3:15 AM,35.6,33.8,93,30.20,4.0,WNW,4.6,-,N/A,,Overcast,290,2013-01-18 08:15:00
3:35 AM,35.6,33.8,93,30.19,3.0,West,5.8,-,0.01,,Overcast,280,2013-01-18 08:35:00
3:55 AM,35.6,33.8,93,30.20,3.0,West,5.8,-,0.01,,Overcast,270,2013-01-18 08:55:00
4:15 AM,33.8,33.8,100,30.20,2.5,West,5.8,-,N/A,,Overcast,280,2013-01-18 09:15:00
4:35 AM,33.8,33.8,100,30.21,3.0,West,4.6,-,N/A,,Overcast,280,2013-01-18 09:35:00
4:55 AM,33.8,33.8,100,30.22,3.0,West,4.6,-,0.01,,Overcast,260,2013-01-18 09:55:00
5:15 AM,33.8,33.8,100,30.23,2.5,Calm,Calm,-,N/A,,Overcast,0,2013-01-18 10:15:00
5:35 AM,33.8,33.8,100,30.25,2.5,WSW,3.5,-,N/A,,Overcast,250,2013-01-18 10:35:00
5:55 AM,33.8,33.8,100,30.26,2.5,WSW,4.6,-,N/A,,Overcast,250,2013-01-18 10:55:00
6:15 AM,33.8,33.8,100,30.27,2.5,Calm,Calm,-,N/A,,Overcast,0,2013-01-18 11:15:00
6:35 AM,33.8,33.8,100,30.28,4.0,Calm,Calm,-,N/A,,Overcast,0,2013-01-18 11:35:00
6:55 AM,33.8,33.8,100,30.29,5.0,West,4.6,-,N/A,,Overcast,260,2013-01-18 11:55:00
7:15 AM,-9999,-9999,N/A,30.31,4.0,Calm,Calm,-,N/A,,Overcast,0,2013-01-18 12:15:00
7:35 AM,33.8,33.8,100,30.32,3.0,Calm,Calm,-,N/A,,Mostly Cloudy,0,2013-01-18 12:35:00
7:55 AM,33.8,33.8,100,30.34,2.0,Calm,Calm,-,0.03,,Mostly Cloudy,0,2013-01-18 12:55:00
8:15 AM,33.8,33.8,100,30.36,1.2,Calm,Calm,-,0.02,,Mist,0,2013-01-18 13:15:00
8:35 AM,33.8,33.8,100,30.37,1.8,Calm,Calm,-,0.04,,Mist,0,2013-01-18 13:35:00
8:55 AM,35.6,33.8,93,30.38,10.0,WNW,4.6,-,0.07,,Clear,300,2013-01-18 13:55:00
9:15 AM,35.6,33.8,93,30.41,10.0,Calm,Calm,-,0.04,,Clear,0,2013-01-18 14:15:00
9:35 AM,37.4,35.6,93,30.44,10.0,NE,3.5,-,0.08,,Clear,50,2013-01-18 14:35:00
9:55 AM,37.4,35.6,93,3.04,10.0,Calm,Calm,-,0.11,,Clear,0,2013-01-18 14:55:00
10:15 AM,37.4,35.6,93,-9999,10.0,NNW,4.6,-,0.05,,Clear,330,2013-01-18 15:15:00
10:35 AM,39.2,32.0,75,30.46,10.0,North,5.8,-,0.09,,Clear,10,2013-01-18 15:35:00
10:55 AM,39.2,30.2,70,30.47,10.0,NE,11.5,-,0.14,,Clear,40,2013-01-18 15:55:00
11:15 AM,39.2,28.4,65,30.47,10.0,NNE,6.9,-,0.04,,Clear,30,2013-01-18 16:15:00
11:35 AM,39.2,28.4,65,30.47,10.0,NNE,9.2,-,0.07,,Clear,20,2013-01-18 16:35:00
11:55 AM,39.2,28.4,65,30.46,10.0,NE,6.9,-,0.10,,Clear,40,2013-01-18 16:55:00
12:15 PM,39.2,28.4,65,30.46,10.0,ENE,8.1,-,0.02,,Clear,60,2013-01-18 17:15:00
12:35 PM,41.0,26.6,57,30.46,10.0,NE,6.9,-,0.04,,Clear,40,2013-01-18 17:35:00
12:55 PM,41.0,26.6,57,30.46,10.0,North,8.1,-,0.04,,Clear,10,2013-01-18 17:55:00
1:15 PM,41.0,24.8,53,30.46,10.0,NNW,6.9,-,N/A,,Clear,330,2013-01-18 18:15:00
1:35 PM,41.0,24.8,53,30.47,10.0,North,8.1,-,N/A,,Clear,360,2013-01-18 18:35:00
1:55 PM,41.0,24.8,53,30.47,10.0,North,3.5,-,N/A,,Clear,10,2013-01-18 18:55:00
2:15 PM,41.0,23.0,49,30.47,10.0,Calm,Calm,-,N/A,,Clear,0,2013-01-18 19:15:00
2:35 PM,42.8,24.8,49,30.48,10.0,Calm,Calm,-,N/A,,Clear,0,2013-01-18 19:35:00
2:55 PM,42.8,23.0,46,30.48,10.0,Calm,Calm,-,N/A,,Clear,0,2013-01-18 19:55:00
3:15 PM,42.8,24.8,49,30.48,10.0,WNW,3.5,-,N/A,,Clear,300,2013-01-18 20:15:00
3:35 PM,42.8,23.0,46,30.49,10.0,Calm,Calm,-,N/A,,Clear,0,2013-01-18 20:35:00
3:55 PM,42.8,24.8,49,30.50,10.0,NNE,3.5,-,N/A,,Clear,20,2013-01-18 20:55:00
4:15 PM,41.0,24.8,53,30.50,10.0,Calm,Calm,-,N/A,,Clear,0,2013-01-18 21:15:00
4:35 PM,41.0,24.8,53,30.50,10.0,East,3.5,-,N/A,,Clear,90,2013-01-18 21:35:00
4:55 PM,41.0,24.8,53,30.50,10.0,Calm,Calm,-,N/A,,Clear,0,2013-01-18 21:55:00
5:15 PM,37.4,26.6,65,30.51,10.0,Calm,Calm,-,N/A,,Clear,0,2013-01-18 22:15:00
5:35 PM,33.8,30.2,87,30.52,10.0,Calm,Calm,-,N/A,,Clear,0,2013-01-18 22:35:00
5:55 PM,33.8,30.2,87,30.52,10.0,Calm,Calm,-,N/A,,Clear,0,2013-01-18 22:55:00
6:15 PM,32.0,30.2,93,30.53,10.0,Calm,Calm,-,N/A,,Clear,0,2013-01-18 23:15:00
6:35 PM,30.2,30.2,100,30.53,10.0,Calm,Calm,-,N/A,Snow,Light Snow,0,2013-01-18 23:35:00
6:55 PM,30.2,28.4,93,30.53,10.0,Calm,Calm,-,N/A,,Clear,0,2013-01-18 23:55:00
7:15 PM,30.2,28.4,93,30.53,10.0,Calm,Calm,-,N/A,,Clear,0,2013-01-19 00:15:00
7:35 PM,30.2,28.4,93,30.53,10.0,Calm,Calm,-,N/A,,Clear,0,2013-01-19 00:35:00
7:55 PM,30.2,28.4,93,30.54,10.0,Calm,Calm,-,N/A,,Clear,0,2013-01-19 00:55:00
8:15 PM,30.2,28.4,93,30.52,10.0,Calm,Calm,-,N/A,,Clear,0,2013-01-19 01:15:00
8:35 PM,30.2,28.4,93,30.53,10.0,Calm,Calm,-,N/A,,Clear,0,2013-01-19 01:35:00
8:55 PM,28.4,28.4,100,30.53,10.0,Calm,Calm,-,N/A,,Clear,0,2013-01-19 01:55:00
9:15 PM,30.2,28.4,93,30.53,10.0,Calm,Calm,-,N/A,,Clear,0,2013-01-19 02:15:00
9:35 PM,28.4,26.6,93,30.53,10.0,Calm,Calm,-,N/A,,Clear,0,2013-01-19 02:35:00
9:55 PM,28.4,26.6,93,30.52,10.0,Calm,Calm,-,N/A,,Clear,0,2013-01-19 02:55:00
10:15 PM,28.4,26.6,93,30.52,10.0,Calm,Calm,-,N/A,,Clear,0,2013-01-19 03:15:00
10:35 PM,28.4,26.6,93,30.52,10.0,Calm,Calm,-,N/A,,Clear,0,2013-01-19 03:35:00
10:55 PM,28.4,26.6,93,30.51,10.0,Calm,Calm,-,N/A,,Clear,0,2013-01-19 03:55:00
11:15 PM,28.4,26.6,93,30.51,10.0,Calm,Calm,-,N/A,,Clear,0,2013-01-19 04:15:00
11:35 PM,30.2,26.6,86,30.50,10.0,Calm,Calm,-,N/A,,Clear,0,2013-01-19 04:35:00
11:55 PM,30.2,26.6,86,30.50,10.0,Calm,Calm,-,N/A,,Clear,0,2013-01-19 04:55:00